Rochelle, IL

8:28 AM CDT on May 29, 2017 (GMT -0500)
Rochelle

Weather History for KRPJ - December, 2011

Change the Weather History Date:

Tuesday, December 27, 2011

  Actual Average (KRFD) Record (KRFD)
Temperature  
Mean Temperature 33 °F -  
Max Temperature 38 °F 29 °F 55 °F (1959)
Min Temperature 28 °F 14 °F -19 °F (1950)
Degree Days  
Heating Degree Days 32    
Moisture  
Dew Point 30 °F    
Average Humidity 86    
Maximum Humidity 100    
Minimum Humidity 69    
Precipitation  
Precipitation 0.00 in - - ()
Sea Level Pressure  
Sea Level Pressure 29.72 in    
Wind  
Wind Speed 9 mph (WNW)    
Max Wind Speed 23 mph    
Max Gust Speed 31 mph    
Visibility 9 miles    
Events      
Averages and records for this station are not official NWS values.
T = Trace of Precipitation, MM = Missing Value Source: NWS Daily Summary

Daily Weather History Graph

Daily Weather History Graph

Search for Another Location

Airport or City:

Trip Planner

Search our weather history database for the weather conditions in past years. The results will help you decide how hot, cold, wet, or windy it might be!

Date:

Astronomy

Dec. 27, 2011 Rise Set
Actual Time 7:23 AM CST 4:31 PM CST
Civil Twilight 6:51 AM CST 5:03 PM CST
Nautical Twilight 6:16 AM CST 5:38 PM CST
Astronomical Twilight 5:42 AM CST 6:12 PM CST
Moon 9:15 AM CST (12/27) 8:08 PM CST (12/27)
Length of Visible Light 10h 12m
Length of Day
9h 08m
Waxing Crescent, 11% of the Moon is Illuminated
Dec 27
Waxing Crescent
Jan 1
First Quarter
Jan 9
Full
Jan 16
Last Quarter
Jan 23
New

Hourly Weather History & Observations

Time (CST) Temp. Windchill Dew Point Humidity Pressure Visibility Wind Dir Wind Speed Gust Speed Precip Events Conditions
12:15 AM 33.8 °F 26.4 °F 32.5 °F 95% 29.79 in 7.0 mi South 9.2 mph - N/A   Overcast
12:35 AM 33.8 °F 28.6 °F 32.5 °F 95% 29.79 in 10.0 mi WSW 5.8 mph - N/A   Overcast
12:55 AM 33.8 °F 27.7 °F 32.5 °F 95% 29.78 in 10.0 mi WSW 6.9 mph - N/A   Overcast
1:15 AM 33.4 °F 27.3 °F 32.5 °F 96% 29.77 in 10.0 mi SW 6.9 mph - N/A   Overcast
1:35 AM 33.8 °F 29.6 °F 32.4 °F 94% 29.77 in 10.0 mi SW 4.6 mph - N/A   Overcast
1:55 AM 33.4 °F 30.4 °F 32.4 °F 96% 29.75 in 10.0 mi SW 3.5 mph - N/A   Overcast
2:15 AM 33.6 °F 28.4 °F 32.4 °F 95% 29.74 in 10.0 mi SSW 5.8 mph - N/A   Overcast
2:35 AM 33.3 °F 28.9 °F 32.4 °F 96% 29.74 in 10.0 mi South 4.6 mph - N/A   Overcast
2:55 AM 32.9 °F 26.7 °F 32.4 °F 98% 29.72 in 7.0 mi South 6.9 mph - N/A   Overcast
3:15 AM 32.9 °F 27.5 °F 32.4 °F 98% 29.70 in 7.0 mi SSW 5.8 mph - N/A   Overcast
3:35 AM 32.7 °F 27.3 °F 32.4 °F 99% 29.70 in 5.0 mi SSW 5.8 mph - N/A   Overcast
3:55 AM 32.4 °F 27.9 °F 32.0 °F 99% 29.69 in 5.0 mi SSW 4.6 mph - N/A   Overcast
4:15 AM 32.4 °F 25.3 °F 32.2 °F 99% 29.68 in 5.0 mi SSW 8.1 mph - N/A   Mostly Cloudy
4:35 AM 32.4 °F 27.9 °F 32.2 °F 99% 29.66 in 5.0 mi SW 4.6 mph - N/A   Scattered Clouds
4:55 AM 32.4 °F 26.9 °F 32.2 °F 99% 29.66 in 5.0 mi SW 5.8 mph - N/A   Scattered Clouds
5:15 AM 32.7 °F 25.7 °F 32.5 °F 99% 29.65 in 7.0 mi WSW 8.1 mph - N/A   Scattered Clouds
5:35 AM 33.1 °F 24.4 °F 32.7 °F 99% 29.64 in 7.0 mi West 11.5 mph - N/A   Scattered Clouds
5:55 AM 33.1 °F 26.1 °F 32.4 °F 97% 29.64 in 7.0 mi WSW 8.1 mph - N/A   Scattered Clouds
6:15 AM 32.5 °F 26.2 °F 32.0 °F 98% 29.64 in 7.0 mi WSW 6.9 mph - N/A   Scattered Clouds
6:35 AM 32.0 °F 25.6 °F 32.0 °F 100% 29.64 in 5.0 mi WSW 6.9 mph - N/A   Scattered Clouds
6:55 AM 32.0 °F 25.6 °F 32.0 °F 100% 29.63 in 5.0 mi WSW 6.9 mph - N/A   Mostly Cloudy
7:15 AM 32.0 °F 27.5 °F 32.0 °F 100% 29.63 in 7.0 mi WSW 4.6 mph - N/A   Overcast
7:35 AM 32.4 °F 26.9 °F 32.0 °F 99% 29.63 in 10.0 mi West 5.8 mph - N/A   Overcast
7:55 AM 32.0 °F 27.5 °F 31.5 °F 98% 29.63 in 7.0 mi West 4.6 mph - N/A   Mostly Cloudy
8:15 AM 32.0 °F 27.5 °F 30.9 °F 96% 29.63 in 10.0 mi West 4.6 mph - N/A   Scattered Clouds
8:35 AM 32.4 °F 26.0 °F 31.5 °F 96% 29.63 in 10.0 mi WNW 6.9 mph - N/A   Mostly Cloudy
8:55 AM 33.4 °F 28.1 °F 31.5 °F 92% 29.63 in 10.0 mi NW 5.8 mph - N/A   Overcast
9:15 AM 34.7 °F 25.1 °F 31.8 °F 89% 29.63 in 10.0 mi NNW 15.0 mph 18.4 mph N/A   Overcast
9:35 AM 35.1 °F 25.5 °F 31.8 °F 88% 29.62 in 10.0 mi NNW 15.0 mph - N/A   Overcast
9:55 AM 35.6 °F 25.5 °F 32.0 °F 87% 29.63 in 10.0 mi NNW 17.3 mph 21.9 mph N/A   Overcast
10:15 AM 36.1 °F 27.3 °F 32.0 °F 85% 29.63 in 10.0 mi NNW 13.8 mph 19.6 mph N/A   Overcast
10:55 AM 37.4 °F 28.2 °F 32.2 °F 81% 29.62 in 10.0 mi NNW 16.1 mph - N/A   Overcast
11:15 AM 37.9 °F 28.2 °F 32.2 °F 80% 29.62 in 10.0 mi NNW 18.4 mph 23.0 mph N/A   Overcast
11:35 AM 38.3 °F 28.7 °F 32.0 °F 78% 29.63 in 10.0 mi NW 18.4 mph 25.3 mph N/A   Overcast
12:15 PM 38.3 °F 29.0 °F 31.1 °F 75% 29.64 in 10.0 mi NNW 17.3 mph 24.2 mph N/A   Overcast
12:35 PM 38.5 °F 29.6 °F 30.9 °F 74% 29.64 in 10.0 mi NW 16.1 mph 24.2 mph N/A   Overcast
12:55 PM 38.7 °F 28.0 °F 30.0 °F 71% 29.64 in 10.0 mi NNW 23.0 mph 28.8 mph N/A   Overcast
1:15 PM 38.5 °F 28.1 °F 29.5 °F 70% 29.66 in 10.0 mi NNW 21.9 mph 31.1 mph N/A   Overcast
1:35 PM 38.3 °F 28.1 °F 29.1 °F 70% - 10.0 mi NNW 20.7 mph 24.2 mph N/A   Overcast
1:55 PM 38.5 °F 29.2 °F 29.5 °F 70% 29.67 in 10.0 mi NNW 17.3 mph - N/A   Overcast
2:15 PM 38.5 °F 30.3 °F 29.5 °F 70% 29.68 in 10.0 mi NNW 13.8 mph - N/A   Overcast
2:35 PM 38.3 °F 29.0 °F 28.9 °F 69% 29.70 in 10.0 mi NNW 17.3 mph 24.2 mph N/A   Overcast
2:55 PM 38.3 °F 28.1 °F 28.9 °F 69% 29.72 in 10.0 mi NNW 20.7 mph 27.6 mph N/A   Overcast
3:15 PM 37.8 °F 28.6 °F 28.6 °F 69% 29.74 in 10.0 mi NNW 16.1 mph 27.6 mph N/A   Overcast
3:35 PM 37.4 °F 27.8 °F 28.6 °F 70% 29.76 in 10.0 mi NNW 17.3 mph 21.9 mph N/A   Overcast
3:55 PM 36.9 °F 28.2 °F 28.4 °F 71% 29.77 in 10.0 mi NNW 13.8 mph 18.4 mph N/A   Mostly Cloudy
4:15 PM 36.0 °F 26.7 °F 27.5 °F 71% 29.79 in 10.0 mi NW 15.0 mph - N/A   Scattered Clouds
4:35 PM 35.8 °F 25.7 °F 26.8 °F 70% 29.82 in 10.0 mi NNW 17.3 mph 23.0 mph N/A   Mostly Cloudy
5:55 PM 32.7 °F 22.5 °F 25.5 °F 75% 29.86 in 10.0 mi NNW 15.0 mph - N/A   Scattered Clouds
6:15 PM 32.0 °F 22.1 °F 25.2 °F 76% 29.87 in 10.0 mi NNW 13.8 mph - N/A   Clear
6:35 PM 31.8 °F 23.3 °F 24.8 °F 75% 29.88 in 10.0 mi NNW 10.4 mph - N/A   Clear
6:55 PM 30.6 °F 22.4 °F 24.8 °F 79% 29.89 in 10.0 mi North 9.2 mph - N/A   Clear
7:35 PM 30.0 °F 22.4 °F 23.9 °F 78% 29.92 in 10.0 mi NNW 8.1 mph - N/A   Clear
7:55 PM 28.4 °F 21.2 °F 23.9 °F 83% 29.93 in 10.0 mi North 6.9 mph - N/A   Clear
8:15 PM 28.9 °F 19.2 °F 23.0 °F 78% 29.94 in 10.0 mi NNW 11.5 mph - N/A   Clear
8:35 PM 28.8 °F 19.0 °F 22.1 °F 76% 29.94 in 10.0 mi NNW 11.5 mph - N/A   Clear
8:55 PM 28.0 °F 18.6 °F 21.9 °F 78% 29.95 in 10.0 mi NNW 10.4 mph - N/A   Clear
9:15 PM 27.1 °F 18.2 °F 22.1 °F 81% 29.96 in 10.0 mi NNW 9.2 mph - N/A   Clear
9:35 PM 27.1 °F 17.5 °F 21.2 °F 78% 29.98 in 10.0 mi NNW 10.4 mph - N/A   Clear
9:55 PM 26.4 °F 18.0 °F 21.0 °F 80% 29.98 in 10.0 mi NNW 8.1 mph - N/A   Clear
10:15 PM 26.1 °F 16.8 °F 21.0 °F 81% 29.98 in 10.0 mi NNW 9.2 mph - N/A   Clear
10:35 PM 25.5 °F 16.2 °F 21.0 °F 83% 29.98 in 10.0 mi North 9.2 mph - N/A   Clear
10:55 PM 25.5 °F 16.2 °F 21.0 °F 83% 29.99 in 10.0 mi NNW 9.2 mph - N/A   Clear
11:15 PM 25.7 °F 16.4 °F 20.3 °F 80% 30.00 in 10.0 mi NNW 9.2 mph - N/A   Clear
11:35 PM 24.8 °F 16.9 °F 20.1 °F 82% 30.01 in 10.0 mi NNW 6.9 mph - N/A   Clear
11:55 PM 24.8 °F 14.6 °F 19.2 °F 79% 30.02 in 10.0 mi NNW 10.4 mph - N/A   Clear